スコッティ彗星

202P/Scotti (2001)

English version
Home page
Updated on September 7, 2008

---------------------------------------------------------------------

・ プロフィール

符号 202P/2001 X2
発見日 2001年12月14日
発見光度 19.3等
発見者 J. V. Scotti (Kitt Peak)

・ 軌道要素

Epoch 2001 Oct. 18.0 TT = JDT 2452200.5
T 2001 Oct. 14.76935 TT                                 MPC
q   2.5238708            (2000.0)            P               Q
n   0.13424886     Peri.  255.92716     -0.01012914     -0.99990215
a   3.7774232      Node   194.66343     +0.93151319     -0.00592746
e   0.3318538      Incl.    2.18423     +0.36356648     -0.01267070
P   7.34

・ 星図

・ 光度変化

        m1 = 14.0 + 5 logΔ + 10.0 log r

---------------------------------------------------------------------

軌道要素はM.P.E.C. 2008-R30に掲載されたものです。
星図は StellaNavigator Ver.2.0 for Windows (アストロアーツ編著 / アスキー出版局刊) で作成したものです。
光度グラフはComet for Windowsで作成したものです。

---------------------------------------------------------------------

Copyright(C) Seiichi Yoshida (comet@aerith.net). All rights reserved.